TimeEDT,TemperatureF,Dew PointF,Humidity,Sea Level PressureIn,VisibilityMPH,Wind Direction,Wind SpeedMPH,Gust SpeedMPH,PrecipitationIn,Events,Conditions,WindDirDegrees,DateUTC
12:15 AM,70.7,69.6,96,29.95,5.0,Calm,Calm,-,N/A,,Overcast,0,2013-07-12 04:15:00
12:35 AM,70.7,69.8,97,29.95,5.0,Calm,Calm,-,N/A,,Mostly Cloudy,0,2013-07-12 04:35:00
12:55 AM,70.9,69.8,96,29.95,10.0,Calm,Calm,-,N/A,,Mostly Cloudy,0,2013-07-12 04:55:00
1:15 AM,70.7,69.4,96,29.95,7.0,Calm,Calm,-,N/A,,Mostly Cloudy,0,2013-07-12 05:15:00
1:35 AM,70.3,69.3,96,29.95,5.0,Calm,Calm,-,N/A,,Overcast,0,2013-07-12 05:35:00
1:55 AM,70.7,69.8,97,29.94,7.0,Calm,Calm,-,N/A,,Overcast,0,2013-07-12 05:55:00
2:15 AM,70.7,69.8,97,29.94,7.0,Calm,Calm,-,N/A,,Overcast,0,2013-07-12 06:15:00
2:35 AM,70.7,69.4,96,29.93,7.0,Calm,Calm,-,N/A,,Mostly Cloudy,0,2013-07-12 06:35:00
2:55 AM,70.7,69.8,97,29.95,7.0,Calm,Calm,-,N/A,,Overcast,0,2013-07-12 06:55:00
3:15 AM,70.7,69.8,97,29.95,7.0,Calm,Calm,-,N/A,,Overcast,0,2013-07-12 07:15:00
3:35 AM,70.7,69.8,97,29.94,7.0,Calm,Calm,-,N/A,,Overcast,0,2013-07-12 07:35:00
3:55 AM,70.7,69.8,97,29.93,7.0,Calm,Calm,-,N/A,,Overcast,0,2013-07-12 07:55:00
4:15 AM,70.7,69.4,96,29.93,10.0,Calm,Calm,-,N/A,,Overcast,0,2013-07-12 08:15:00
4:35 AM,70.7,69.4,96,29.95,7.0,Calm,Calm,-,N/A,Rain,Light Rain,0,2013-07-12 08:35:00
4:55 AM,70.7,69.4,96,29.95,10.0,Calm,Calm,-,N/A,,Overcast,0,2013-07-12 08:55:00
5:15 AM,70.7,69.1,95,29.96,10.0,Calm,Calm,-,N/A,,Overcast,0,2013-07-12 09:15:00
5:35 AM,70.7,69.1,95,29.97,10.0,Calm,Calm,-,N/A,,Overcast,0,2013-07-12 09:35:00
5:55 AM,70.7,69.4,96,29.97,10.0,Calm,Calm,-,N/A,,Overcast,0,2013-07-12 09:55:00
6:15 AM,70.7,69.3,95,29.97,10.0,Calm,Calm,-,N/A,,Overcast,0,2013-07-12 10:15:00
6:35 AM,70.5,69.1,95,29.97,10.0,Calm,Calm,-,N/A,,Overcast,0,2013-07-12 10:35:00
6:55 AM,70.3,68.9,95,29.97,10.0,Calm,Calm,-,N/A,,Mostly Cloudy,0,2013-07-12 10:55:00
7:15 AM,70.7,68.0,91,29.97,10.0,North,4.6,-,N/A,,Scattered Clouds,360,2013-07-12 11:15:00
7:35 AM,70.7,67.8,91,29.98,10.0,North,4.6,-,N/A,,Scattered Clouds,360,2013-07-12 11:35:00
7:55 AM,70.7,67.8,91,29.99,10.0,North,4.6,-,N/A,,Mostly Cloudy,10,2013-07-12 11:55:00
8:15 AM,70.7,67.3,89,29.99,10.0,North,4.6,-,N/A,,Overcast,10,2013-07-12 12:15:00
8:35 AM,70.7,67.6,90,30.00,10.0,North,4.6,-,N/A,,Overcast,10,2013-07-12 12:35:00
8:55 AM,70.7,67.1,88,30.00,10.0,NNE,4.6,-,N/A,,Overcast,30,2013-07-12 12:55:00
9:15 AM,70.9,66.6,86,30.00,10.0,North,3.5,-,N/A,,Overcast,10,2013-07-12 13:15:00
9:35 AM,71.6,66.7,85,30.01,10.0,North,4.6,-,N/A,,Overcast,10,2013-07-12 13:35:00
9:55 AM,70.7,66.2,86,30.02,10.0,ENE,3.5,-,N/A,,Overcast,60,2013-07-12 13:55:00
10:15 AM,71.2,66.0,84,30.02,10.0,Calm,Calm,-,N/A,,Overcast,0,2013-07-12 14:15:00
10:35 AM,71.2,66.4,85,30.02,10.0,Calm,Calm,-,N/A,,Overcast,0,2013-07-12 14:35:00
10:55 AM,71.6,66.0,82,30.02,10.0,North,3.5,-,N/A,,Overcast,10,2013-07-12 14:55:00
11:15 AM,71.4,65.3,81,30.03,10.0,NE,6.9,-,N/A,,Overcast,50,2013-07-12 15:15:00
11:35 AM,72.0,65.3,79,30.04,10.0,ENE,6.9,-,N/A,,Overcast,60,2013-07-12 15:35:00
11:55 AM,73.0,65.7,78,30.04,10.0,NE,3.5,-,N/A,,Overcast,50,2013-07-12 15:55:00
12:15 PM,73.9,65.3,74,30.04,10.0,NE,4.6,-,N/A,,Overcast,50,2013-07-12 16:15:00
12:35 PM,73.6,65.8,77,30.04,10.0,ENE,6.9,-,N/A,,Overcast,70,2013-07-12 16:35:00
12:55 PM,73.2,64.9,75,30.04,10.0,NE,9.2,-,N/A,,Overcast,50,2013-07-12 16:55:00
1:15 PM,73.0,65.1,76,30.04,10.0,ENE,9.2,-,N/A,,Overcast,70,2013-07-12 17:15:00
1:35 PM,73.4,65.7,77,30.03,10.0,NNE,4.6,-,N/A,,Overcast,30,2013-07-12 17:35:00
1:55 PM,75.4,65.5,71,30.03,10.0,ENE,11.5,17.3,N/A,,Overcast,60,2013-07-12 17:55:00
2:15 PM,76.6,66.6,71,30.03,10.0,East,9.2,-,N/A,,Overcast,80,2013-07-12 18:15:00
2:35 PM,76.6,65.5,68,30.03,10.0,ENE,10.4,17.3,N/A,,Overcast,60,2013-07-12 18:35:00
2:55 PM,76.6,64.9,67,30.03,10.0,NE,8.1,-,N/A,,Mostly Cloudy,50,2013-07-12 18:55:00
3:15 PM,78.1,65.8,66,30.03,10.0,NNE,6.9,-,N/A,,Scattered Clouds,30,2013-07-12 19:15:00
3:35 PM,78.1,65.5,65,30.02,10.0,East,8.1,-,N/A,,Mostly Cloudy,80,2013-07-12 19:35:00
3:55 PM,78.1,66.0,66,30.02,10.0,East,6.9,-,N/A,,Overcast,90,2013-07-12 19:55:00
4:15 PM,78.3,65.7,65,30.01,10.0,NNE,5.8,-,N/A,,Mostly Cloudy,20,2013-07-12 20:15:00
4:35 PM,77.9,64.9,64,30.01,10.0,NE,6.9,-,N/A,,Scattered Clouds,50,2013-07-12 20:35:00
4:55 PM,78.3,65.5,65,30.02,10.0,NE,5.8,-,N/A,,Scattered Clouds,50,2013-07-12 20:55:00
5:15 PM,76.6,66.2,70,30.02,10.0,East,5.8,-,N/A,,Mostly Cloudy,80,2013-07-12 21:15:00
5:35 PM,76.6,66.6,71,30.02,10.0,East,6.9,-,N/A,,Mostly Cloudy,90,2013-07-12 21:35:00
5:55 PM,74.8,65.7,73,30.03,10.0,East,5.8,-,N/A,,Mostly Cloudy,80,2013-07-12 21:55:00
6:15 PM,75.6,66.6,74,30.03,10.0,East,4.6,-,N/A,,Mostly Cloudy,90,2013-07-12 22:15:00
6:35 PM,74.7,66.2,75,30.04,10.0,East,8.1,-,N/A,,Overcast,100,2013-07-12 22:35:00
6:55 PM,73.6,66.0,77,30.03,10.0,East,4.6,-,N/A,,Overcast,80,2013-07-12 22:55:00
7:15 PM,73.0,66.2,79,30.05,10.0,East,4.6,-,N/A,,Mostly Cloudy,80,2013-07-12 23:15:00
7:35 PM,72.7,66.0,80,30.05,10.0,Calm,Calm,-,N/A,,Overcast,0,2013-07-12 23:35:00
7:55 PM,73.0,66.2,79,30.05,10.0,East,5.8,-,N/A,,Overcast,90,2013-07-12 23:55:00
8:15 PM,71.6,65.8,82,30.05,10.0,East,6.9,-,N/A,,Scattered Clouds,100,2013-07-13 00:15:00
8:35 PM,70.3,65.5,85,30.06,10.0,Calm,Calm,-,N/A,,Clear,0,2013-07-13 00:35:00
8:55 PM,70.0,65.5,86,30.06,10.0,Calm,Calm,-,N/A,,Mostly Cloudy,0,2013-07-13 00:55:00
9:15 PM,68.5,66.4,93,30.07,10.0,North,3.5,-,N/A,,Mostly Cloudy,350,2013-07-13 01:15:00
9:35 PM,69.8,65.7,87,30.06,10.0,Calm,Calm,-,N/A,,Overcast,0,2013-07-13 01:35:00
9:55 PM,68.9,64.9,87,30.07,10.0,Calm,Calm,-,N/A,,Scattered Clouds,0,2013-07-13 01:55:00
10:15 PM,68.0,64.8,89,30.08,10.0,Calm,Calm,-,N/A,,Clear,0,2013-07-13 02:15:00
10:35 PM,68.0,64.6,89,30.09,10.0,Calm,Calm,-,N/A,,Clear,0,2013-07-13 02:35:00
10:55 PM,68.0,64.6,89,30.10,10.0,Calm,Calm,-,N/A,,Mostly Cloudy,0,2013-07-13 02:55:00
11:15 PM,68.2,64.9,89,30.10,10.0,Calm,Calm,-,N/A,,Overcast,0,2013-07-13 03:15:00
11:35 PM,68.2,64.9,89,30.10,10.0,Calm,Calm,-,N/A,,Overcast,0,2013-07-13 03:35:00
11:55 PM,68.2,64.9,89,30.10,10.0,Calm,Calm,-,N/A,,Overcast,0,2013-07-13 03:55:00